Regional Weather Roundup
Issued by NWS

Home | Current Version | Previous Version | Graphics & Text | Print | Product List | Glossary On
Versions: 1 2 3 4 5 6 7 8 9 10 11 12 13 14 15 16 17 18 19 20 21 22 23 24 25 26 27 28 29 30 31 32 33 34 35 36 37 38 39 40 41 42 43 44 45 46 47 48 49 50
000
ASUS43 KFSD 100710
RWRSD

WEATHER ROUNDUP FOR SOUTH DAKOTA
NATIONAL WEATHER SERVICE SIOUX FALLS SD
100 AM CST SAT DEC 10 2016

NOTE: "FAIR" INDICATES FEW OR NO CLOUDS BELOW 12,000 FEET WITH NO
SIGNIFICANT WEATHER AND/OR OBSTRUCTIONS TO VISIBILITY.


SDZ001>005-009-010-012>017-100800-
NORTHWEST AND NORTH CENTRAL SOUTH DAKOTA

CITY           SKY/WX    TMP DP  RH WIND       PRES   REMARKS
BUFFALO          N/A     -3  -7  82 SE9       30.16F WCI -19
FAITH            N/A     -6  -9  86 SE7       30.33F WCI -20
MOBRIDGE       CLOUDY    -8 -15  71 N5        30.43F WCI -19
$$

SDZ012>016-024>037-041>051-057-063-072>074-100800-
SOUTHWEST AND SOUTH CENTRAL SOUTH DAKOTA

CITY           SKY/WX    TMP DP  RH WIND       PRES   REMARKS
RAPID CTY ARPT CLOUDY     3  -2  79 SE14      30.22F WCI -15
PIERRE         CLOUDY    -5 -10  79 NE5       30.46F WCI -16
CUSTER         LGT SNOW   8   4  83 W5        30.00F VSB 1   WCI   0
ELLSWORTH AFB  FLURRIES   3  -2  78 SE15      30.19  WCI -15
PHILIP         CLOUDY     1  -2  87 E8        30.38F WCI -13
PINE RIDGE     LGT SNOW   5   2  87 E9        30.20F FOG     WCI  -9
SPEARFISH      CLOUDY     0  -4  85 CALM      30.12F
WINNER         CLOUDY     5   1  83 N5        30.42F WCI  -4
$$

SDZ004>011-016>023-039-040-100800-
NORTHEAST SOUTH DAKOTA

CITY           SKY/WX    TMP DP  RH WIND       PRES   REMARKS
ABERDEEN       CLOUDY    -6 -14  68 N5        30.53F WCI -17
WATERTOWN      CLOUDY    -1  -5  82 N3        30.47R
BROOKINGS      CLOUDY     4  -1  80 N5        30.47S WCI  -5
SISSETON         N/A     -6 -12  75 N9        30.53F WCI -23
$$

SDZ017-020-022-023-036>040-048>070-100800-
SOUTHEAST SOUTH DAKOTA

CITY           SKY/WX    TMP DP  RH WIND       PRES   REMARKS
SIOUX FALLS    CLOUDY    11   7  84 NE7       30.47F WCI   0
HURON          CLOUDY     3   0  87 N8        30.49F WCI -10
CHAMBERLAIN    CLOUDY     4   1  84 NE5       30.46F WCI  -5
MITCHELL       CLOUDY     5   1  83 N6        30.50F WCI  -6
YANKTON        CLOUDY    10   7  85 NW6       30.47F WCI   1
$$

ABBREVIATIONS USED IN REMARKS
   TC - TEMPERATURE IN CELSIUS
  WCI - WIND CHILL INDEX
   HX - HEAT INDEX
  VSB - VISIBILITY




USA.gov is the U.S. government's official web portal to all federal, state and local government web resources and services.